sat.trackr.live / text

‹ back to catalog

STARLINK-4119

NORAD 53026 · 2022-076AS

PAYLOAD ACTIVE UNKNOWN

§ Identity

Operator
Country
US
Launch date
2022-07-07
Launch site
AFETR
Launch vehicle
Mass (kg)
RCS (m²)

Purposes: comms

External: N2YO · Heavens-Above · Gunter

§ Orbital elements

Epoch: 2026-05-25T04:03:29.553120Z

Period
95.44 min
Inclination
53.2127°
Eccentricity
0.0001518
Mean motion
15.08841705 rev/d
Perigee alt
538.7 km
Apogee alt
540.8 km
Semi-major
6,917.9 km
B*
-3.8630e-5
RAAN
100.6841°
Arg perigee
67.1165°
Mean anomaly
292.9987°
Rev number
21,453

§ Raw data

STARLINK-41191 53026U 22076AS  26145.16909205 -.00000903  00000+0 -38630-4 0  99902 53026  53.2127 100.6841 0001518  67.1165 292.9987 15.08841705214539

JSON: /api/v1/satellites/53026 · /tle

For live sub-satellite position, see the globe view (requires WebGL).

§ Visibility from observer

Set your observer location to see the next 7 days of passes ≥ 10°. The values pass through the URL so the page stays shareable.

No JS? Fill the form by hand. The geolocation button needs JavaScript.